CST,Max TemperatureF,Mean TemperatureF,Min TemperatureF,Max Dew PointF,MeanDew PointF,Min DewpointF,Max Humidity, Mean Humidity, Min Humidity, Max Sea Level PressureIn, Mean Sea Level PressureIn, Min Sea Level PressureIn, Max VisibilityMiles, Mean VisibilityMiles, Min VisibilityMiles, Max Wind SpeedMPH, Mean Wind SpeedMPH, Max Gust SpeedMPH,PrecipitationIn, CloudCover, Events, WindDirDegrees
2012-11-1,35,32,28,34,28,21,100,81,70,30.09,29.98,29.91,10,10,5,15,7,20,0.00,8,Rain,313
2012-11-2,33,27,21,23,21,19,93,78,60,30.20,30.15,30.09,10,10,10,8,3,,0.00,4,,23
2012-11-3,39,30,21,27,24,19,100,83,60,30.25,30.23,30.20,10,10,10,7,0,,0.00,4,,112
2012-11-4,33,24,14,28,20,12,100,87,60,30.26,30.24,30.22,10,9,0,7,0,,0.00,5,Fog,102
2012-11-5,35,25,15,32,24,16,100,82,70,30.26,30.11,29.83,10,10,3,13,2,18,0.00,7,Snow,157
2012-11-6,37,35,33,36,34,32,100,95,87,29.93,29.76,29.66,10,6,2,8,5,,0.05,8,Rain-Snow,234
2012-11-7,37,35,33,36,34,34,100,95,87,30.05,30.01,29.93,10,8,1,6,3,,0.00,8,Rain,249
2012-11-8,44,38,33,37,34,30,93,84,66,30.10,29.94,29.83,10,10,4,13,7,23,0.01,6,Rain,234
2012-11-9,35,32,28,30,27,25,93,81,70,30.19,30.14,30.10,10,10,10,10,4,,0.00,7,,45
2012-11-10,44,36,28,43,34,25,100,94,80,30.10,29.77,29.47,10,7,0,12,7,21,0.20,8,Rain-Snow-Thunderstorm,88
2012-11-11,50,36,21,48,29,16,100,87,74,29.73,29.60,29.40,10,9,2,15,9,24,0.00,8,Rain-Snow,238
2012-11-12,23,20,17,21,17,12,93,87,79,30.14,29.87,29.72,10,6,1,16,9,22,0.00,8,Snow,254
2012-11-13,32,26,19,25,19,16,93,79,59,30.24,30.21,30.14,10,10,10,10,5,,0.00,6,,212
2012-11-14,42,34,26,30,27,23,93,78,57,30.22,30.15,30.05,10,10,10,9,2,,0.00,5,,163
2012-11-15,37,26,15,30,19,7,93,64,33,30.45,30.23,30.01,10,10,10,15,6,20,0.00,1,,272
2012-11-16,37,24,10,21,15,9,93,71,44,30.46,30.38,30.26,10,10,7,13,3,20,0.00,1,,147
2012-11-17,48,40,33,37,31,23,81,67,58,30.26,30.17,30.13,10,10,10,12,8,20,0.00,2,,169
2012-11-18,51,42,33,37,33,28,81,64,44,30.15,30.08,30.02,10,10,10,12,7,18,0.00,3,,148
2012-11-19,51,40,28,37,34,27,100,71,58,30.08,30.01,29.96,10,10,4,9,5,,0.00,3,Rain-Thunderstorm,189
2012-11-20,39,31,23,34,28,21,100,89,61,30.16,30.07,29.95,10,6,0,6,1,,0.00,4,Fog,159
2012-11-21,53,42,30,37,32,27,93,72,50,29.95,29.82,29.58,10,10,7,7,3,17,0.00,0,,148
2012-11-22,46,34,21,39,32,19,100,87,71,29.82,29.63,29.50,10,7,1,17,8,25,0.01,4,Rain-Snow,263
2012-11-23,21,12,3,19,11,1,93,83,73,30.30,30.17,29.84,10,6,1,15,10,28,0.00,7,Snow,308
2012-11-24,17,6,-5,18,6,-9,100,86,68,30.28,30.02,29.75,10,8,1,9,3,,0.00,4,Snow,166
2012-11-25,21,14,6,19,13,3,100,86,73,30.11,29.88,29.74,10,7,1,13,7,21,0.00,8,Snow,280
2012-11-26,14,7,0,10,2,-6,92,80,62,30.30,30.23,30.12,10,9,3,9,5,,0.00,7,Snow,259
2012-11-27,24,17,8,19,14,5,93,83,73,30.18,30.07,30.01,10,7,1,12,6,16,0.00,8,Snow,256
2012-11-28,24,15,6,21,12,1,93,83,74,30.23,30.13,30.00,10,9,1,13,6,20,0.00,7,Snow,246
2012-11-29,24,18,12,21,11,9,86,83,73,30.26,30.20,30.09,10,10,5,7,4,,0.00,8,Snow,42
2012-11-30,28,21,14,27,20,10,93,86,79,30.25,30.14,29.99,10,10,4,12,5,17,0.00,8,Snow,115